Alturas, CA

10:55 PM PDT on October 21, 2017 (GMT -0700)
Alturas Municipal

Weather History for KAAT - November, 2012

Change the Weather History Date:

Thursday, November 8, 2012

  Actual Average Record
Temperature  
Mean Temperature 36 °F 39 °F  
Max Temperature 44 °F 53 °F 76 °F (1991)
Min Temperature 28 °F 24 °F 5 °F (1936)
Degree Days  
Heating Degree Days 29 26  
Month to date heating degree days 166 200  
Since 1 July heating degree days 823 1143  
Cooling Degree Days 0 0  
Month to date cooling degree days 0 0  
Year to date cooling degree days 224 156  
Moisture  
Dew Point 29 °F    
Average Humidity 73    
Maximum Humidity 92    
Minimum Humidity 53    
Precipitation  
Precipitation 0.10 in 0.06 in 0.63 in (1974)
Month to date precipitation 0.10 0.50  
Year to date precipitation 6.35 11.17  
Sea Level Pressure  
Sea Level Pressure 29.72 in    
Wind  
Wind Speed 5 mph (West)    
Max Wind Speed 29 mph    
Max Gust Speed 33 mph    
Visibility 6 miles    
Events Rain , Snow    
T = Trace of Precipitation, MM = Missing Value Source: NWS Daily Summary

Daily Weather History Graph

Daily Weather History Graph

Search for Another Location

Airport or City:

Trip Planner

Search our weather history database for the weather conditions in past years. The results will help you decide how hot, cold, wet, or windy it might be!

Date:

Astronomy

Nov. 08, 2012 Rise Set
Actual Time 6:43 AM PST 4:48 PM PST
Civil Twilight 6:13 AM PST 5:17 PM PST
Nautical Twilight 5:40 AM PST 5:50 PM PST
Astronomical Twilight 5:08 AM PST 6:23 PM PST
Moon 12:39 AM PST (11/8) 1:35 PM PST (11/8)
Length of Visible Light 11h 03m
Length of Day
10h 05m
Waning Crescent, 32% of the Moon is Illuminated
Nov 8
Waning Crescent
Nov 13
New
Nov 20
First Quarter
Nov 28
Full
Dec 6
Last Quarter

Hourly Weather History & Observations

Time (PST) Temp. Windchill Dew Point Humidity Pressure Visibility Wind Dir Wind Speed Gust Speed Precip Events Conditions
12:55 AM 37.9 °F - 34.0 °F 86% 29.72 in 9.0 mi Calm Calm - N/A   Mostly Cloudy
1:55 AM 37.0 °F - 34.0 °F 89% 29.70 in 10.0 mi Calm Calm - N/A   Mostly Cloudy
2:55 AM 37.9 °F - 34.0 °F 86% 29.67 in 10.0 mi Calm Calm - N/A   Overcast
3:55 AM 42.1 °F 37.7 °F 33.1 °F 70% 29.65 in 10.0 mi NNW 6.9 mph - N/A   Mostly Cloudy
4:08 AM 41.0 °F 35.2 °F 32.0 °F 70% 29.71 in 10.0 mi NNW 9.2 mph - N/A   Mostly Cloudy
4:55 AM 39.0 °F 34.8 °F 30.0 °F 70% 29.68 in 10.0 mi WNW 5.8 mph - N/A   Mostly Cloudy
5:17 AM 37.4 °F - 30.2 °F 75% 29.71 in 10.0 mi Calm Calm - N/A   Overcast
5:55 AM 37.9 °F 35.5 °F 30.0 °F 73% 29.68 in 10.0 mi West 3.5 mph - N/A   Overcast
6:13 AM 39.2 °F 35.9 °F 30.2 °F 70% 29.71 in 10.0 mi SW 4.6 mph - N/A   Overcast
6:55 AM 36.0 °F 33.3 °F 30.9 °F 82% 29.68 in 9.0 mi West 3.5 mph - 0.02 in Rain Light Rain
7:55 AM 36.0 °F 33.3 °F 32.0 °F 86% 29.70 in 10.0 mi ESE 3.5 mph - 0.00 in   Overcast
8:02 AM 37.4 °F - 32.0 °F 81% 29.71 in 10.0 mi Calm Calm - N/A   Overcast
8:55 AM 36.0 °F - 33.1 °F 89% 29.69 in 10.0 mi Calm Calm - 0.01 in Rain Light Rain
9:25 AM 35.6 °F - 32.0 °F 87% 29.71 in 1.8 mi Calm Calm - 0.02 in Rain Rain
9:31 AM 35.6 °F - 33.8 °F 93% 29.70 in 3.0 mi Calm Calm - 0.02 in Rain Light Rain
9:48 AM 37.4 °F 33.8 °F 33.8 °F 87% 29.70 in 10.0 mi ENE 4.6 mph - 0.02 in   Mostly Cloudy
10:55 AM 42.1 °F 35.7 °F 33.1 °F 70% 29.68 in 10.0 mi NW 11.5 mph - 0.02 in   Overcast
11:55 AM 43.0 °F 33.8 °F 27.0 °F 53% 29.68 in 10.0 mi West 23.0 mph 28.8 mph N/A   Scattered Clouds
12:55 PM 37.0 °F 27.0 °F 28.9 °F 73% 29.72 in 10.0 mi West 18.4 mph 29.9 mph N/A   Partly Cloudy
1:55 PM 36.0 °F 27.1 °F 28.0 °F 73% 29.72 in 10.0 mi West 13.8 mph - N/A   Overcast
2:27 PM 33.8 °F 23.9 °F 28.4 °F 81% 29.71 in 3.0 mi West 15.0 mph 24.2 mph 0.00 in Snow Light Snow
2:46 PM 33.8 °F 25.8 °F 28.4 °F 81% 29.71 in 2.5 mi WSW 10.4 mph - 0.00 in Snow Light Snow
2:53 PM 33.8 °F 25.8 °F 28.4 °F 81% 29.71 in 3.0 mi WSW 10.4 mph - 0.00 in Snow Light Snow
2:55 PM 33.1 °F 25.5 °F 28.9 °F 85% 29.73 in 2.5 mi West 9.2 mph - 0.00 in Snow Light Snow
3:10 PM 33.8 °F 27.7 °F 30.2 °F 87% 29.71 in 4.0 mi West 6.9 mph - 0.00 in Snow Light Snow
3:17 PM 33.8 °F 30.8 °F 30.2 °F 87% 29.71 in 7.0 mi SSW 3.5 mph - 0.00 in Snow Light Snow
3:55 PM 34.0 °F - 28.9 °F 82% 29.70 in 10.0 mi Calm Calm - 0.00 in   Overcast
4:05 PM 33.8 °F - 28.4 °F 81% 29.69 in 10.0 mi Calm Calm - N/A   Overcast
4:55 PM 34.0 °F - 28.9 °F 82% 29.69 in 10.0 mi Calm Calm - N/A   Overcast
5:30 PM 33.8 °F 27.7 °F 26.6 °F 75% 29.70 in 10.0 mi West 6.9 mph - N/A   Overcast
5:55 PM 34.0 °F 28.8 °F 26.1 °F 73% 29.72 in 10.0 mi SW 5.8 mph - N/A   Overcast
6:55 PM 30.9 °F 25.2 °F 26.1 °F 82% 29.73 in 10.0 mi West 5.8 mph - 0.00 in   Mostly Cloudy
7:19 PM 32.0 °F 24.8 °F 26.6 °F 80% 29.71 in 10.0 mi West 8.1 mph - N/A   Overcast
7:55 PM 30.9 °F 27.5 °F 27.0 °F 85% 29.75 in 9.0 mi WNW 3.5 mph - 0.00 in   Overcast
8:33 PM 30.2 °F 22.6 °F 26.6 °F 86% 29.73 in 8.0 mi NW 8.1 mph - 0.00 in Snow Light Snow
8:45 PM 30.2 °F 25.4 °F 26.6 °F 86% 29.73 in 2.0 mi NW 4.6 mph - 0.01 in Snow Light Snow
8:55 PM 30.0 °F 25.2 °F 27.0 °F 88% 29.77 in 4.0 mi NW 4.6 mph - 0.01 in Snow Light Snow
9:01 PM 30.2 °F 26.7 °F 26.6 °F 86% 29.74 in 2.0 mi NW 3.5 mph - 0.00 in Snow Light Snow
9:08 PM 28.4 °F 23.3 °F 26.6 °F 93% 29.74 in 1.2 mi NNW 4.6 mph - 0.00 in Snow Light Snow
9:27 PM 28.4 °F 24.6 °F 26.6 °F 93% 29.74 in 2.0 mi NNW 3.5 mph - 0.01 in Snow Light Snow
9:41 PM 28.4 °F - 26.6 °F 93% 29.74 in 1.2 mi Calm Calm - 0.01 in Snow Light Snow
9:55 PM 28.9 °F - 27.0 °F 92% 29.77 in 1.0 mi Calm Calm - 0.02 in Snow Light Snow
10:06 PM 28.4 °F - 26.6 °F 93% 29.75 in 2.0 mi Calm Calm - 0.00 in Snow Light Snow
10:20 PM 28.4 °F - 26.6 °F 93% 29.74 in 4.0 mi Calm Calm - 0.00 in Snow Light Snow
10:29 PM 28.4 °F - 26.6 °F 93% 29.74 in 3.0 mi Calm Calm - 0.00 in Snow Light Snow
10:38 PM 28.4 °F - 26.6 °F 93% 29.75 in 2.5 mi Calm Calm - 0.01 in Snow Light Snow
10:46 PM 28.4 °F - 26.6 °F 93% 29.74 in 5.0 mi Calm Calm - 0.01 in Snow Light Snow
10:55 PM 28.0 °F - 27.0 °F 96% 29.77 in 8.0 mi Calm Calm - 0.01 in Snow Light Snow
11:23 PM 28.4 °F - 26.6 °F 93% 29.75 in 2.5 mi Calm Calm - 0.00 in Snow Light Snow
11:36 PM 28.4 °F - 26.6 °F 93% 29.75 in 1.8 mi Calm Calm - 0.00 in Snow Light Snow
11:43 PM 28.4 °F 24.6 °F 26.6 °F 93% 29.75 in 2.0 mi ESE 3.5 mph - 0.00 in Snow Light Snow
11:55 PM 28.0 °F 24.2 °F 27.0 °F 96% 29.77 in 1.5 mi ESE 3.5 mph - 0.01 in Snow Light Snow